Tracking 19908 objects as of 18-Oct-2019
HD Live streaming from Space Station
objects crossing your sky now

IRIDIUM 33 DEB

Track IRIDIUM 33 DEB now!
10-day predictions


NORAD ID: 38023
Int'l Code: 1997-051YK
Perigee: 682.6 km
Apogee: 833.7 km
Inclination: 86.4 °
Period: 99.8 minutes
Semi major axis: 7129 km
RCS: 0.0057 m2 (small)
Launch date: September 14, 1997
Source: United States (US)
Launch site: TYURATAM MISSILE AND SPACE COMPLEX (TTMTR)

Note: This is SATELLITE DEBRIS
aabbcc
Your satellite tracking list
Your tracking list is empty




NASA's NSSDC Master Catalog

Two Line Element Set (TLE):
1 38023U 97051YK  19291.43211232  .00003312  00000-0  93339-3 0  9997
2 38023  86.4125 340.3176 0105944 235.9165 123.1947 14.42274613519581
Source of the keplerian elements: AFSPC